Tracking 17938 objects as of 21-February-2017
HD Live streaming from Space Station
objects crossing your sky now

AZUR (GRS A)

Track AZUR (GRS A) now!
10-day predictions
AZUR (GRS A) is classified as:


NORAD ID: 4221
Int'l Code: 1969-097A
Perigee: 363.9 km
Apogee: 1,288.6 km
Inclination: 102.7 °
Period: 101.3 minutes
Semi major axis: 7197 km
RCS: 0.3339 m2 (medium)
Launch date: November 8, 1969
Source: Germany (GER)
Launch site: AIR FORCE WESTERN TEST RANGE (AFWTR)
Your satellite tracking list
Your tracking list is empty





NASA's NSSDC Master Catalog

Two Line Element Set (TLE):
1 04221U 69097A   17052.55458636  .00003004  00000-0  14759-3 0  9993
2 04221 102.6990 225.8693 0642401  57.2930 308.8517 14.21846451232742
Source of the keplerian elements: AFSPC